Yeovilton, United Kingdom

8:33 AM BST on June 23, 2018 (GMT +0100)
Yeovil Radar Navy

Weather History for EGDY - October, 2017

Change the Weather History Date:

Saturday, October 7, 2017

  Actual Average Record
Temperature  
Mean Temperature 55 °F -  
Max Temperature 63 °F 55 °F 66 °F (2013)
Min Temperature 47 °F 43 °F 35 °F (2012)
Degree Days  
Heating Degree Days 10    
Growing Degree Days 5 (Base 50)    
Moisture  
Dew Point 52 °F    
Average Humidity 82    
Maximum Humidity 94    
Minimum Humidity 62    
Precipitation  
Precipitation 0.04 in - - ()
Sea Level Pressure  
Sea Level Pressure 30.12 in    
Wind  
Wind Speed 8 mph ()    
Max Wind Speed 20 mph    
Max Gust Speed 22 mph    
Visibility 7.4 miles    
Events Rain    
Averages and records for this station are not official NWS values.
T = Trace of Precipitation, MM = Missing Value Source: Averaged Metar Reports

Daily Weather History Graph

Daily Weather History Graph

Search for Another Location

Airport or City:

Astronomy

Oct. 07, 2017 Rise Set
Actual Time 7:20 AM BST 6:34 PM BST
Civil Twilight 6:47 AM BST 7:07 PM BST
Nautical Twilight 6:09 AM BST 7:45 PM BST
Astronomical Twilight 5:30 AM BST 8:24 PM BST
Moon 7:54 PM BST (10/7) 9:04 AM BST (10/7)
Length of Visible Light 12h 20m
Length of Day
11h 14m
Waning Gibbous, 96% of the Moon is Illuminated
Oct 7
Waning Gibbous
Oct 12
Last Quarter
Oct 19
New
Oct 27
First Quarter
Nov 4
Full

Hourly Weather History & Observations

Time (BST) Temp. Dew Point Humidity Pressure Visibility Wind Dir Wind Speed Gust Speed Precip Events Conditions
12:50 AM 51.8 °F 48.2 °F 88% 30.27 in 6.2 mi SSW 6.9 mph - N/A   Mostly Cloudy
1:00 AM 51 °F 47 °F 83% 30.29 in 22 mi SSW 6.9 mph - -   Scattered Clouds
1:50 AM 53.6 °F 46.4 °F 77% 30.27 in 6.2 mi SW 5.8 mph - N/A   Mostly Cloudy
2:00 AM 54 °F 46 °F 67% 30.28 in 19 mi SW 5.8 mph - -   Scattered Clouds
2:50 AM 53.6 °F 46.4 °F 77% 30.24 in 6.2 mi SW 6.9 mph - N/A   Mostly Cloudy
3:00 AM 54 °F 46 °F 65% 30.26 in 31 mi SW 6.9 mph - -   Partly Cloudy
3:50 AM 53.6 °F 46.4 °F 77% 30.21 in 6.2 mi SSW 9.2 mph - N/A   Mostly Cloudy
4:00 AM 53 °F 47 °F 72% 30.23 in 31 mi SSW 9.2 mph - -   Scattered Clouds
4:50 AM 53.6 °F 48.2 °F 82% 30.18 in 6.2 mi SW 8.1 mph - N/A   Mostly Cloudy
5:00 AM 54 °F 48 °F 74% 30.20 in 31 mi SW 8.1 mph - -   Mostly Cloudy
5:50 AM 55.4 °F 50.0 °F 82% 30.18 in 6.2 mi SW 6.9 mph - N/A   Mostly Cloudy
6:00 AM 55 °F 50 °F 78% 30.19 in 25 mi SW 6.9 mph - -   Partly Cloudy
6:50 AM 55.4 °F 53.6 °F 94% 30.15 in 4.3 mi SW 9.2 mph - N/A Rain Rain
7:00 AM 55 °F 53 °F 89% 30.17 in 4 mi SW 9.2 mph - - Rain Rain Showers
7:50 AM 55.4 °F 53.6 °F 94% 30.12 in 6.2 mi SSW 8.1 mph - N/A   Mostly Cloudy
8:00 AM 56 °F 54 °F 90% 30.14 in 28 mi SSW 8.1 mph - - Rain Rain
8:50 AM 57.2 °F 55.4 °F 94% 30.12 in 6.2 mi SSW 9.2 mph - N/A   Scattered Clouds
9:50 AM 59.0 °F 55.4 °F 88% 30.09 in 6.2 mi SW 9.2 mph - N/A   Overcast
10:00 AM 58 °F 55 °F 86% 30.12 in 25 mi SW 9.2 mph - -   Overcast
10:50 AM 59.0 °F 55.4 °F 88% 30.09 in 6.2 mi WSW 10.4 mph - N/A   Overcast
11:50 AM 60.8 °F 57.2 °F 88% 30.06 in 6.2 mi WSW 10.4 mph - N/A   Mostly Cloudy
12:00 PM 60 °F 56 °F 83% 30.09 in 31 mi WSW 10.4 mph - -   Mostly Cloudy
12:50 PM 62.6 °F 57.2 °F 82% 30.06 in 6.2 mi West 13.8 mph - N/A   Mostly Cloudy
1:00 PM 62 °F 57 °F 79% 30.07 in 31 mi West 13.8 mph - -   Mostly Cloudy
1:50 PM 62.6 °F 57.2 °F 82% 30.04 in 6.2 mi West 17.3 mph - N/A   Scattered Clouds
2:00 PM 63 °F 58 °F 77% 30.05 in 28 mi West 17.3 mph - -   Scattered Clouds
2:50 PM 62.6 °F 57.2 °F 82% 30.04 in 6.2 mi WNW 15.0 mph - N/A   Mostly Cloudy
3:00 PM 62 °F 56 °F 76% 30.04 in 19 mi WNW 15.0 mph - -   Scattered Clouds
3:50 PM 62.6 °F 53.6 °F 72% 30.01 in 6.2 mi WNW 12.7 mph - N/A   Partly Cloudy
4:00 PM 62 °F 54 °F 66% 30.03 in 31 mi WNW 12.7 mph - -   Scattered Clouds
4:50 PM 60.8 °F 51.8 °F 72% 30.01 in 6.2 mi WNW 10.4 mph 21.9 mph N/A   Mostly Cloudy
5:00 PM 61 °F 51 °F 62% 30.03 in 31 mi WNW 10.4 mph - -   Mostly Cloudy
5:50 PM 59.0 °F 50.0 °F 72% 30.04 in 6.2 mi WNW 19.6 mph - N/A   Mostly Cloudy
6:50 PM 57.2 °F 51.8 °F 82% 30.04 in 6.2 mi West 11.5 mph - N/A   Scattered Clouds
7:00 PM 56 °F 52 °F 80% 30.06 in 28 mi West 11.5 mph - -   Scattered Clouds
7:50 PM 53.6 °F 50.0 °F 88% 30.04 in 6.2 mi West 10.4 mph - N/A   Partly Cloudy
8:00 PM 54 °F 51 °F 85% 30.06 in 31 mi West 10.4 mph - -   Scattered Clouds
8:50 PM 51.8 °F 48.2 °F 88% 30.06 in 6.2 mi West 9.2 mph - N/A   Unknown
9:00 PM 52 °F 49 °F 85% 30.09 in 19 mi West 9.2 mph - -  
9:50 PM 50.0 °F 48.2 °F 94% 30.06 in 6.2 mi West 8.1 mph - N/A   Unknown
10:00 PM 51 °F 49 °F 88% 30.08 in 31 mi West 8.1 mph - -  
10:50 PM 51.8 °F 48.2 °F 88% 30.09 in 6.2 mi NW 2.3 mph - N/A   Unknown
11:00 PM 51 °F 49 °F 89% 30.09 in 25 mi NW 2.3 mph - -  
11:50 PM 51.8 °F 50.0 °F 94% 30.09 in 6.2 mi West 5.8 mph - N/A   Scattered Clouds